�N����,����,�~����,�C��,���x,�C��,����,���ϕ���,�ő�u�ԕ���,�ő厞����,���˗�,�I�_���x,�n�����x,�ő啗���N��,DTYPE
"23/03/06","00:10",0.0,3.7,84.2,1019.7,339.1,2.8,4.3,340.1,0.00,1.3,8.7,"00:09:08",1
"23/03/06","00:20",0.0,3.6,84.7,1019.7,339.9,3.1,3.7,345.8,0.00,1.3,8.8,"00:19:58",1
"23/03/06","00:30",0.0,3.7,84.9,1019.4,342.5,3.1,4.0,352.8,0.00,1.4,8.7,"00:28:22",1
"23/03/06","00:40",0.0,3.7,85.0,1019.9,344.9,3.2,4.2,345.8,0.00,1.5,8.5,"00:31:02",1
"23/03/06","00:50",0.0,3.6,85.0,1019.4,342.9,3.6,4.9,352.4,0.00,1.4,8.6,"00:42:24",1
"23/03/06","01:00",0.0,3.6,85.0,1019.4,343.4,3.2,5.0,338.6,0.00,1.4,8.6,"00:58:42",1
"23/03/06","01:10",0.0,3.5,85.0,1019.2,342.6,3.1,4.2,344.8,0.00,1.3,8.6,"01:00:28",1
"23/03/06","01:20",0.0,3.4,85.0,1019.4,342.5,2.8,4.1,342.1,0.00,1.2,8.4,"01:16:34",1
"23/03/06","01:30",0.0,3.3,85.3,1019.2,346.3,2.7,4.3,342.4,0.00,1.1,8.4,"01:29:50",1
"23/03/06","01:40",0.0,3.4,85.5,1019.4,347.7,2.8,4.3,349.7,0.00,1.2,8.3,"01:34:32",1
"23/03/06","01:50",0.0,3.3,85.7,1019.9,342.3,3.0,4.0,352.0,0.00,1.2,8.5,"01:44:56",1
"23/03/06","02:00",0.0,3.1,85.8,1019.4,332.5,2.6,3.5,349.2,0.00,1.0,8.4,"01:53:48",1
"23/03/06","02:10",0.0,3.0,86.0,1019.2,334.9,2.3,3.7,341.5,0.00,0.9,8.3,"02:03:52",1
"23/03/06","02:20",0.0,2.8,86.4,1019.2,336.3,2.6,3.2,349.7,0.00,0.8,8.3,"02:10:58",1
"23/03/06","02:30",0.0,2.9,86.7,1019.2,340.9,2.2,3.5,340.8,0.00,0.9,8.2,"02:26:18",1
"23/03/06","02:40",0.0,2.7,87.0,1019.4,333.1,2.1,3.1,338.5,0.00,0.8,8.2,"02:38:36",1
"23/03/06","02:50",0.0,2.6,87.3,1019.0,335.1,2.2,2.9,336.4,0.00,0.7,8.1,"02:40:34",1
"23/03/06","03:00",0.0,2.5,87.6,1019.0,322.8,2.6,3.4,313.8,0.00,0.7,8.1,"02:53:36",1
"23/03/06","03:10",0.0,2.5,87.9,1019.2,333.0,2.5,3.5,317.4,0.00,0.7,8.1,"03:04:02",1
"23/03/06","03:20",0.0,2.3,88.2,1019.0,318.9,2.2,3.3,324.8,0.00,0.6,8.1,"03:19:18",1
"23/03/06","03:30",0.0,2.3,88.6,1019.0,325.2,2.0,2.9,342.6,0.00,0.7,8.2,"03:25:46",1
"23/03/06","03:40",0.0,2.3,88.9,1018.7,334.3,2.2,3.1,341.9,0.00,0.7,8.0,"03:33:00",1
"23/03/06","03:50",0.0,2.1,89.1,1018.5,330.4,2.3,3.4,351.5,0.00,0.5,8.0,"03:43:06",1
"23/03/06","04:00",0.0,2.0,89.5,1018.5,327.9,2.2,3.4,342.2,0.00,0.5,8.1,"03:59:38",1
"23/03/06","04:10",0.0,2.1,89.7,1018.5,337.6,2.5,3.2,344.1,0.00,0.6,8.1,"04:00:02",1
"23/03/06","04:20",0.0,2.1,89.9,1018.7,327.8,2.3,3.1,314.7,0.00,0.7,8.0,"04:11:32",1
"23/03/06","04:30",0.0,2.1,90.1,1018.7,322.2,2.5,3.4,341.2,0.00,0.7,7.8,"04:23:30",1
"23/03/06","04:40",0.0,2.1,90.2,1018.2,325.9,2.7,4.0,322.2,0.00,0.7,7.9,"04:32:12",1
"23/03/06","04:50",0.0,1.9,90.5,1019.0,327.7,2.2,3.3,340.0,0.00,0.6,7.7,"04:49:36",1
"23/03/06","05:00",0.0,1.9,90.7,1018.2,327.5,2.3,3.2,337.9,0.00,0.6,7.8,"04:55:34",1
"23/03/06","05:10",0.0,1.9,90.8,1018.5,325.7,2.6,3.3,335.2,0.00,0.6,7.7,"05:04:04",1
"23/03/06","05:20",0.0,1.9,91.0,1018.7,331.0,2.5,3.2,341.4,0.00,0.6,7.9,"05:13:58",1
"23/03/06","05:30",0.0,1.8,91.2,1018.7,324.8,2.6,3.4,327.1,0.00,0.6,7.8,"05:25:26",1
"23/03/06","05:40",0.0,1.8,91.3,1018.7,324.3,2.6,3.9,315.5,0.00,0.6,7.7,"05:32:16",1
"23/03/06","05:50",0.0,1.9,91.5,1019.0,322.7,2.6,3.7,313.6,0.00,0.7,7.7,"05:47:10",1
"23/03/06","06:00",0.0,1.8,91.6,1018.5,322.9,2.8,4.2,315.1,0.00,0.6,7.6,"05:54:04",1
"23/03/06","06:10",0.0,1.9,91.7,1018.7,318.6,3.1,3.9,328.8,0.00,0.7,7.6,"06:01:34",1
"23/03/06","06:20",0.0,2.0,91.7,1019.0,306.2,3.1,4.1,324.0,0.00,0.8,7.6,"06:14:18",1
"23/03/06","06:30",0.0,2.0,91.8,1019.0,322.9,3.2,4.5,330.9,0.00,0.8,7.6,"06:21:00",1
"23/03/06","06:40",0.0,1.9,91.8,1019.4,291.6,2.1,3.1,303.6,0.00,0.7,7.4,"06:36:14",1
"23/03/06","06:50",0.0,1.6,91.9,1019.2,281.9,1.8,2.0,290.9,0.00,0.5,7.5,"06:41:28",1
"23/03/06","07:00",0.0,1.2,91.9,1019.0,299.8,1.5,1.8,291.1,0.00,0.1,7.4,"06:50:46",1
"23/03/06","07:10",0.0,1.0,92.1,1019.0,291.9,1.0,1.6,273.3,0.00,-0.1,7.3,"07:02:24",1
"23/03/06","07:20",0.0,0.8,92.3,1019.0,279.4,0.6,1.1,298.5,0.00,-0.3,7.5,"07:17:04",1
"23/03/06","07:30",0.0,0.7,92.5,1019.2,284.0,1.0,1.2,294.1,0.00,-0.3,7.4,"07:23:36",1
"23/03/06","07:40",0.0,1.2,92.8,1019.2,313.0,1.5,1.7,320.4,0.00,0.2,7.3,"07:30:36",1
"23/03/06","07:50",0.0,1.6,92.9,1019.2,304.8,1.3,1.8,307.5,0.01,0.6,7.2,"07:41:06",1
"23/03/06","08:00",0.0,2.3,93.0,1019.2,291.3,1.3,2.0,272.6,0.02,1.3,7.4,"07:56:50",1
"23/03/06","08:10",0.0,3.0,92.9,1019.7,258.0,0.5,2.0,312.0,0.04,2.0,7.2,"08:00:02",1
"23/03/06","08:20",0.0,4.0,92.8,1020.1,312.1,1.2,2.0,316.4,0.06,3.0,7.4,"08:10:40",1
"23/03/06","08:30",0.0,4.7,92.1,1020.4,333.5,0.7,1.7,324.2,0.09,3.6,7.3,"08:20:16",1
"23/03/06","08:40",0.0,5.0,91.2,1020.6,296.3,0.6,1.4,324.0,0.11,3.7,7.3,"08:31:52",1
"23/03/06","08:50",0.0,5.1,90.3,1020.8,128.4,0.7,1.7,95.5,0.14,3.7,7.2,"08:46:32",1
"23/03/06","09:00",0.0,6.0,88.8,1020.8,226.4,0.6,1.2,143.3,0.17,4.3,7.3,"08:51:12",1
"23/03/06","09:10",0.0,7.0,86.4,1021.3,266.8,0.5,1.1,257.2,0.20,4.9,7.1,"09:08:34",1
"23/03/06","09:20",0.0,7.8,83.0,1021.1,282.1,0.7,1.2,260.3,0.23,5.1,7.3,"09:10:08",1
"23/03/06","09:30",0.0,8.5,79.6,1021.5,289.9,0.7,1.4,288.2,0.25,5.2,7.3,"09:29:38",1
"23/03/06","09:40",0.0,8.8,75.6,1021.3,279.0,0.7,1.4,249.4,0.28,4.8,7.3,"09:31:36",1
"23/03/06","09:50",0.0,8.9,72.8,1020.8,281.8,0.7,1.4,120.3,0.31,4.3,7.4,"09:42:24",1
"23/03/06","10:00",0.0,9.4,71.3,1021.1,346.6,0.6,1.3,349.0,0.34,4.5,7.3,"09:59:00",1
"23/03/06","10:10",0.0,10.1,70.4,1021.3,187.7,0.8,2.0,118.8,0.36,5.0,7.3,"10:04:16",1
"23/03/06","10:20",0.0,10.3,69.5,1021.1,195.6,1.0,2.5,201.0,0.39,5.0,7.6,"10:16:20",1
"23/03/06","10:30",0.0,10.6,67.5,1020.8,207.2,1.1,2.6,224.9,0.41,4.9,7.6,"10:27:44",1
"23/03/06","10:40",0.0,11.2,66.3,1020.6,211.0,1.2,2.9,232.0,0.43,5.2,7.7,"10:38:00",1
"23/03/06","10:50",0.0,11.4,64.9,1020.4,211.5,1.2,2.2,150.7,0.45,5.1,7.8,"10:40:32",1
"23/03/06","11:00",0.0,11.9,63.6,1020.4,195.9,1.0,2.5,140.4,0.47,5.3,7.7,"10:58:24",1
"23/03/06","11:10",0.0,12.1,62.1,1019.9,190.1,1.1,2.5,191.3,0.48,5.1,7.8,"11:00:24",1
"23/03/06","11:20",0.0,12.2,61.7,1019.7,209.3,1.3,2.8,192.3,0.50,5.1,8.0,"11:12:00",1
"23/03/06","11:30",0.0,12.0,60.5,1019.7,110.6,1.6,3.7,110.0,0.51,4.6,8.0,"11:26:16",1
"23/03/06","11:40",0.0,12.3,61.4,1019.9,122.9,2.0,3.9,118.0,0.52,5.1,8.0,"11:36:32",1
"23/03/06","11:50",0.0,13.1,58.3,1019.4,179.5,1.5,3.5,163.8,0.53,5.1,8.2,"11:48:32",1
"23/03/06","12:00",0.0,13.4,56.7,1019.0,153.6,2.0,4.2,161.3,0.54,5.0,8.2,"11:57:52",1
"23/03/06","12:10",0.0,13.8,55.2,1019.2,152.5,1.8,3.4,46.5,0.54,5.0,8.5,"12:04:16",1
"23/03/06","12:20",0.0,14.4,54.8,1018.7,133.2,1.3,3.1,117.3,0.55,5.5,8.7,"12:19:46",1
"23/03/06","12:30",0.0,14.6,53.2,1018.7,129.6,2.2,4.3,120.9,0.56,5.2,8.6,"12:24:58",1
"23/03/06","12:40",0.0,15.2,48.1,1018.0,174.5,2.0,3.3,163.6,0.56,4.3,8.9,"12:34:40",1
"23/03/06","12:50",0.0,15.8,46.9,1018.0,162.4,1.8,3.7,119.1,0.57,4.5,8.8,"12:44:40",1
"23/03/06","13:00",0.0,15.5,45.6,1018.0,165.4,2.6,4.8,127.0,0.57,3.9,9.0,"12:58:16",1
"23/03/06","13:10",0.0,16.1,44.4,1017.5,188.2,2.0,3.6,188.9,0.56,4.0,9.0,"13:01:36",1
"23/03/06","13:20",0.0,15.7,43.8,1017.3,191.1,2.7,5.2,183.5,0.56,3.5,9.2,"13:19:20",1
"23/03/06","13:30",0.0,16.0,45.5,1016.8,175.2,3.0,5.8,148.9,0.55,4.3,9.2,"13:23:44",1
"23/03/06","13:40",0.0,16.4,46.3,1017.1,174.5,1.7,3.2,166.5,0.55,4.9,9.5,"13:39:04",1
"23/03/06","13:50",0.0,16.7,41.0,1016.6,223.2,2.7,5.0,221.1,0.55,3.4,9.6,"13:41:44",1
"23/03/06","14:00",0.0,16.4,38.9,1016.4,226.6,3.2,6.6,230.7,0.54,2.4,9.8,"13:54:32",1
"23/03/06","14:10",0.0,16.7,37.9,1016.1,258.5,2.8,5.7,244.5,0.53,2.3,9.8,"14:09:28",1
"23/03/06","14:20",0.0,17.0,38.1,1016.1,254.7,3.1,6.7,245.0,0.51,2.7,9.9,"14:11:04",1
"23/03/06","14:30",0.0,17.2,38.0,1015.9,245.2,2.5,4.5,246.5,0.50,2.8,10.0,"14:21:52",1
"23/03/06","14:40",0.0,17.1,42.5,1015.9,227.9,2.8,6.2,224.7,0.48,4.3,10.2,"14:35:20",1
"23/03/06","14:50",0.0,17.2,37.8,1015.6,235.3,2.3,4.3,245.4,0.46,2.7,10.2,"14:45:36",1
"23/03/06","15:00",0.0,17.6,38.4,1015.4,219.5,3.2,5.2,231.8,0.44,3.3,10.3,"14:55:44",1
"23/03/06","15:10",0.0,17.4,36.1,1015.4,243.7,3.1,5.7,225.1,0.42,2.3,10.4,"15:00:16",1
"23/03/06","15:20",0.0,17.5,38.5,1014.9,223.0,2.2,4.5,222.6,0.40,3.3,10.7,"15:13:28",1
"23/03/06","15:30",0.0,17.8,37.6,1015.2,221.1,2.1,4.5,191.4,0.38,3.2,10.3,"15:27:12",1
"23/03/06","15:40",0.0,17.5,36.3,1014.9,192.1,2.6,5.8,233.2,0.35,2.4,10.6,"15:38:24",1
"23/03/06","15:50",0.0,17.8,36.9,1014.7,201.9,3.0,6.6,151.4,0.33,2.9,10.8,"15:41:28",1
"23/03/06","16:00",0.0,17.3,38.1,1014.9,178.6,3.0,5.2,141.1,0.31,2.9,10.8,"15:59:28",1
"23/03/06","16:10",0.0,17.3,40.2,1015.2,165.6,2.2,4.5,206.9,0.28,3.7,10.9,"16:01:04",1
"23/03/06","16:20",0.0,17.3,39.7,1015.2,158.6,2.0,3.6,135.5,0.25,3.5,10.7,"16:11:28",1
"23/03/06","16:30",0.0,17.2,39.8,1014.9,186.4,2.0,3.5,164.3,0.22,3.5,11.2,"16:24:00",1
"23/03/06","16:40",0.0,16.7,40.6,1015.2,167.4,3.1,6.4,118.4,0.20,3.3,11.0,"16:32:08",1
"23/03/06","16:50",0.0,16.5,41.6,1015.2,179.3,3.2,5.5,187.0,0.17,3.5,11.1,"16:41:44",1
"23/03/06","17:00",0.0,16.2,41.2,1015.2,157.9,3.2,5.6,148.6,0.14,3.1,11.1,"16:52:08",1
"23/03/06","17:10",0.0,16.1,41.6,1015.4,190.0,2.7,5.2,235.9,0.11,3.1,11.2,"17:05:28",1
"23/03/06","17:20",0.0,16.0,42.1,1015.4,162.0,2.7,5.0,154.2,0.09,3.2,11.1,"17:10:16",1
"23/03/06","17:30",0.0,15.8,42.3,1015.4,187.6,2.6,4.9,160.1,0.07,3.1,11.1,"17:20:48",1
"23/03/06","17:40",0.0,15.8,42.1,1015.6,182.8,1.7,2.9,154.8,0.05,3.0,11.1,"17:34:40",1
"23/03/06","17:50",0.0,15.4,42.1,1015.4,176.2,2.2,4.0,156.1,0.03,2.6,11.1,"17:49:40",1
"23/03/06","18:00",0.0,15.0,43.7,1015.9,164.4,1.8,3.2,134.5,0.01,2.8,11.1,"17:51:06",1
"23/03/06","18:10",0.0,14.7,43.8,1015.6,162.7,1.6,3.1,124.2,0.00,2.6,11.0,"18:01:52",1
"23/03/06","18:20",0.0,14.2,45.8,1015.6,133.3,1.3,2.5,120.4,0.00,2.7,11.1,"18:11:20",1
"23/03/06","18:30",0.0,13.7,47.0,1015.6,192.8,1.1,2.0,193.8,0.00,2.6,11.0,"18:28:30",1
"23/03/06","18:40",0.0,13.5,48.6,1016.1,195.8,0.7,1.9,208.3,0.00,2.9,11.0,"18:32:08",1
"23/03/06","18:50",0.0,12.6,52.0,1016.4,315.4,1.3,2.5,330.0,0.00,3.1,11.0,"18:46:42",1
"23/03/06","19:00",0.0,11.8,54.7,1016.4,333.8,2.5,2.7,341.3,0.00,3.0,10.9,"18:50:58",1
"23/03/06","19:10",0.0,11.0,57.5,1016.8,331.6,2.2,3.2,334.9,0.00,3.0,11.1,"19:02:02",1
"23/03/06","19:20",0.0,10.5,60.0,1016.6,323.6,1.7,2.1,328.2,0.00,3.1,10.8,"19:11:04",1
"23/03/06","19:30",0.0,10.4,61.1,1016.6,289.6,2.0,2.4,292.2,0.00,3.3,10.9,"19:27:44",1
"23/03/06","19:40",0.0,10.1,62.4,1016.8,295.0,2.0,2.7,305.0,0.00,3.3,10.9,"19:30:16",1
"23/03/06","19:50",0.0,9.6,64.1,1016.8,298.5,1.8,2.2,313.6,0.00,3.2,10.7,"19:46:56",1
"23/03/06","20:00",0.0,9.4,65.5,1016.6,283.1,2.0,2.5,275.5,0.00,3.3,10.7,"19:57:36",1
"23/03/06","20:10",0.0,9.1,66.5,1016.8,297.8,2.5,4.1,315.5,0.00,3.2,10.9,"20:03:04",1
"23/03/06","20:20",0.0,9.0,67.0,1016.8,303.6,2.2,3.3,315.5,0.00,3.2,10.6,"20:12:56",1
"23/03/06","20:30",0.0,8.8,67.7,1016.6,285.7,2.1,2.8,280.8,0.00,3.2,10.7,"20:29:12",1
"23/03/06","20:40",0.0,8.6,68.3,1016.8,296.3,2.5,3.5,296.8,0.00,3.1,10.4,"20:37:12",1
"23/03/06","20:50",0.0,8.4,69.1,1017.1,287.8,2.2,2.8,266.2,0.00,3.1,10.6,"20:41:04",1
"23/03/06","21:00",0.0,8.3,69.8,1016.8,300.5,2.6,4.1,287.5,0.00,3.2,10.5,"20:59:20",1
"23/03/06","21:10",0.0,8.5,69.9,1017.1,302.7,3.7,6.0,330.5,0.00,3.4,10.4,"21:05:12",1
"23/03/06","21:20",0.0,8.6,69.4,1017.1,314.8,4.0,6.4,325.1,0.00,3.4,10.3,"21:17:28",1
"23/03/06","21:30",0.0,8.5,68.8,1017.1,291.0,3.2,4.3,302.2,0.00,3.1,10.3,"21:26:48",1
"23/03/06","21:40",0.0,8.1,69.2,1016.8,322.5,2.2,3.3,334.5,0.00,2.8,10.2,"21:35:28",1
"23/03/06","21:50",0.0,7.9,70.0,1017.3,345.5,1.3,2.1,342.2,0.00,2.8,10.1,"21:40:24",1
"23/03/06","22:00",0.0,7.2,71.3,1017.1,317.6,2.3,2.8,324.5,0.00,2.4,10.2,"21:50:32",1
"23/03/06","22:10",0.0,6.8,72.0,1017.1,285.6,2.0,2.5,271.4,0.00,2.2,10.1,"22:01:04",1
"23/03/06","22:20",0.0,6.5,72.5,1017.3,305.7,1.7,2.5,309.9,0.00,2.0,10.0,"22:10:08",1
"23/03/06","22:30",0.0,6.3,73.5,1017.1,343.2,1.5,2.2,338.0,0.00,2.0,10.0,"22:22:16",1
"23/03/06","22:40",0.0,5.7,74.3,1017.3,280.1,1.0,2.2,10.0,0.00,1.5,10.0,"22:30:40",1
"23/03/06","22:50",0.0,6.0,75.2,1017.1,304.7,2.6,4.3,303.2,0.00,2.0,10.0,"22:46:22",1
"23/03/06","23:00",0.0,6.0,75.3,1017.1,316.1,2.2,4.1,321.2,0.00,2.0,9.7,"22:50:28",1
"23/03/06","23:10",0.0,5.7,75.5,1017.1,312.8,1.8,2.2,326.3,0.00,1.8,9.7,"23:03:46",1
"23/03/06","23:20",0.0,5.2,76.1,1017.1,322.7,1.5,2.0,302.6,0.00,1.4,9.7,"23:18:04",1
"23/03/06","23:30",0.0,4.8,76.8,1017.1,287.3,1.0,1.7,312.2,0.00,1.1,9.5,"23:21:28",1
"23/03/06","23:40",0.0,4.5,77.5,1016.8,325.6,2.0,2.6,323.3,0.00,1.0,9.5,"23:37:14",1
"23/03/06","23:50",0.0,4.0,78.1,1016.8,320.1,1.6,2.0,333.8,0.00,0.6,9.4,"23:46:08",1
"23/03/06","24:00",0.0,3.8,78.9,1016.8,308.3,1.3,1.7,306.5,0.00,0.5,9.5,"23:56:56",1
